sat.trackr.live / text

‹ back to catalog

STARLINK-35989

NORAD 66819 · 2025-278AE

PAYLOAD ACTIVE UNKNOWN

§ Identity

Operator
Country
US
Launch date
2025-12-01
Launch site
AFETR
Launch vehicle
Mass (kg)
RCS (m²)

Purposes: comms

External: N2YO · Heavens-Above · Gunter

§ Orbital elements

Epoch: 2026-05-25T02:18:31.825152Z

Period
94.27 min
Inclination
43.0039°
Eccentricity
0.0001356
Mean motion
15.27599185 rev/d
Perigee alt
482.1 km
Apogee alt
483.9 km
Semi-major
6,861.1 km
B*
5.9604e-4
RAAN
42.9269°
Arg perigee
248.7541°
Mean anomaly
111.3166°
Rev number
2,689

§ Raw data

STARLINK-359891 66819U 25278AE  26145.09620168  .00016185  00000+0  59604-3 0  99912 66819  43.0039  42.9269 0001356 248.7541 111.3166 15.27599185 26895

JSON: /api/v1/satellites/66819 · /tle

For live sub-satellite position, see the globe view (requires WebGL).

§ Visibility from observer

Set your observer location to see the next 7 days of passes ≥ 10°. The values pass through the URL so the page stays shareable.

No JS? Fill the form by hand. The geolocation button needs JavaScript.